Weather History for Statesville, NC

Change the Weather History Date:

Wednesday, August 7, 2013

  Actual Average (KHKY) Record (KHKY)
Temperature  
Mean Temperature 74 °F -  
Max Temperature 80 °F 85 °F 99 °F (2007)
Min Temperature 69 °F 67 °F 51 °F (2004)
Cooling Degree Days 10    
Growing Degree Days 24 (Base 50)    
Moisture  
Dew Point 70 °F    
Average Humidity 88    
Maximum Humidity 98    
Minimum Humidity 69    
Precipitation  
Precipitation 0.00 in - - ()
Sea Level Pressure  
Sea Level Pressure 30.07 in    
Wind  
Wind Speed 2 mph (South)    
Max Wind Speed 9 mph    
Max Gust Speed -    
Visibility 8 miles    
Events Rain    
Averages and records for this station are not official NWS values.
T = Trace of Precipitation, MM = Missing Value Source: NWS Daily Summary

Daily Weather History Graph

Daily Weather History Graph

Search for Another Location

Airport:

Trip Planner

Search our weather history database for the weather conditions in past years. The results will help you decide how hot, cold, wet, or windy it might be!

Date:

Astronomy

Aug. 07, 2013 Rise Set
Actual Time 6:36 AM EDT 8:22 PM EDT
Civil Twilight 6:08 AM EDT 8:49 PM EDT
Nautical Twilight 5:35 AM EDT 9:22 PM EDT
Astronomical Twilight 4:59 AM EDT 9:58 PM EDT
Moon 7:20 AM EDT (8/7) 8:33 PM EDT (8/7)
Length of Visible Light 14h 40m
Length of Day
13h 45m
New Moon, 1% of the Moon is Illuminated
Aug 7
New Moon
Aug 14
First Quarter
Aug 20
Full
Aug 28
Last Quarter
Sep 5
New

Hourly Weather History & Observations

Time (EDT) Temp. Heat Index Dew Point Humidity Pressure Visibility Wind Dir Wind Speed Gust Speed Precip Events Conditions
12:15 AM 70.3 °F - 68.4 °F 93% 30.08 in 10.0 mi SSW 3.5 mph - N/A   Overcast
12:35 AM 70.3 °F - 68.4 °F 93% 30.08 in 10.0 mi South 3.5 mph - N/A   Overcast
12:55 AM 70.0 °F - 68.4 °F 95% 30.07 in 10.0 mi Calm Calm - N/A   Overcast
1:15 AM 70.0 °F - 68.4 °F 95% 30.07 in 10.0 mi Calm Calm - N/A   Overcast
1:35 AM 70.0 °F - 68.4 °F 95% 30.06 in 10.0 mi Calm Calm - N/A   Overcast
1:55 AM 69.8 °F - 68.4 °F 95% 30.06 in 10.0 mi Calm Calm - N/A   Overcast
2:15 AM 69.8 °F - 68.5 °F 96% 30.06 in 7.0 mi Calm Calm - N/A   Overcast
2:35 AM 69.8 °F - 68.5 °F 96% 30.06 in 7.0 mi Calm Calm - N/A   Overcast
2:55 AM 70.0 °F - 68.5 °F 95% 30.06 in 7.0 mi Calm Calm - N/A   Overcast
3:15 AM 70.0 °F - 68.4 °F 95% 30.06 in 10.0 mi Calm Calm - N/A   Overcast
3:35 AM 70.0 °F - 68.4 °F 95% 30.06 in 7.0 mi Calm Calm - N/A   Overcast
3:55 AM 69.8 °F - 68.2 °F 95% 30.06 in 7.0 mi South 3.5 mph - N/A   Overcast
4:15 AM 69.8 °F - 68.4 °F 95% 30.06 in 7.0 mi Calm Calm - N/A   Overcast
4:35 AM 70.0 °F - 68.4 °F 95% 30.07 in 7.0 mi Calm Calm - N/A   Overcast
4:55 AM 70.2 °F - 68.7 °F 95% 30.07 in 7.0 mi Calm Calm - N/A Rain Heavy Rain
5:15 AM 70.0 °F - 68.9 °F 96% 30.07 in 5.0 mi Calm Calm - N/A   Overcast
5:35 AM 69.8 °F - 68.9 °F 97% 30.06 in 5.0 mi Calm Calm - N/A   Overcast
5:55 AM 69.8 °F - 69.1 °F 98% 30.07 in 4.0 mi Calm Calm - N/A   Overcast
6:15 AM 69.8 °F - 69.3 °F 98% 30.07 in 4.0 mi Calm Calm - N/A   Overcast
6:35 AM 69.8 °F - 69.3 °F 98% 30.07 in 4.0 mi Calm Calm - N/A   Overcast
6:55 AM 69.8 °F - 69.3 °F 98% 30.08 in 2.5 mi Calm Calm - N/A   Overcast
7:15 AM 70.0 °F - 69.3 °F 98% 30.08 in 3.0 mi Calm Calm - N/A   Overcast
7:35 AM 70.2 °F - 69.4 °F 98% 30.08 in 3.0 mi Calm Calm - N/A   Overcast
7:55 AM 70.2 °F - 69.4 °F 98% 30.08 in 3.0 mi Calm Calm - N/A   Overcast
8:15 AM 70.3 °F - 69.6 °F 98% 30.09 in 3.0 mi Calm Calm - N/A   Overcast
8:35 AM 70.7 °F - 69.8 °F 97% 30.09 in 4.0 mi Calm Calm - N/A   Overcast
8:55 AM 70.9 °F - 70.0 °F 97% 30.10 in 4.0 mi Calm Calm - N/A   Overcast
9:15 AM 71.1 °F - 70.0 °F 96% 30.10 in 4.0 mi Calm Calm - N/A   Overcast
9:35 AM 71.6 °F - 70.2 °F 95% 30.09 in 5.0 mi SE 4.6 mph - N/A   Overcast
9:55 AM 71.6 °F - 70.0 °F 95% 30.09 in 4.0 mi SSE 3.5 mph - N/A   Overcast
10:15 AM 72.0 °F - 70.2 °F 94% 30.10 in 5.0 mi SSE 3.5 mph - N/A   Overcast
10:35 AM 72.7 °F - 70.5 °F 93% 30.11 in 7.0 mi South 3.5 mph - N/A   Overcast
10:55 AM 72.9 °F - 70.2 °F 91% 30.11 in 10.0 mi South 6.9 mph - N/A   Overcast
11:15 AM 73.4 °F - 70.0 °F 89% 30.11 in 10.0 mi South 9.2 mph - N/A   Overcast
11:35 AM 75.2 °F - 70.5 °F 85% 30.11 in 10.0 mi South 9.2 mph - N/A   Overcast
11:55 AM 76.6 °F - 71.1 °F 83% 30.11 in 10.0 mi SSE 4.6 mph - N/A   Overcast
12:15 PM 76.1 °F - 70.7 °F 83% 30.11 in 10.0 mi SSE 4.6 mph - N/A   Overcast
12:35 PM 76.1 °F - 71.2 °F 85% 30.11 in 10.0 mi SSW 5.8 mph - N/A   Overcast
12:55 PM 76.6 °F - 71.2 °F 83% 30.10 in 10.0 mi South 3.5 mph - N/A   Overcast
1:15 PM 77.5 °F - 71.2 °F 81% 30.10 in 10.0 mi South 4.6 mph - N/A   Overcast
1:35 PM 79.0 °F - 70.5 °F 75% 30.09 in 10.0 mi SSE 5.8 mph - N/A   Mostly Cloudy
1:55 PM 79.5 °F - 69.8 °F 72% 30.09 in 10.0 mi South 6.9 mph - N/A   Mostly Cloudy
2:15 PM 79.3 °F - 69.4 °F 72% 30.09 in 10.0 mi SSW 4.6 mph - N/A   Mostly Cloudy
2:35 PM 79.7 °F - 69.8 °F 72% 30.09 in 10.0 mi South 5.8 mph - N/A   Mostly Cloudy
2:55 PM 79.0 °F - 70.0 °F 74% 30.08 in 10.0 mi South 4.6 mph - N/A   Mostly Cloudy
3:15 PM 78.8 °F - 70.2 °F 75% 30.07 in 10.0 mi South 4.6 mph - N/A   Mostly Cloudy
3:35 PM 79.2 °F - 70.5 °F 75% 30.07 in 10.0 mi South 3.5 mph - N/A   Mostly Cloudy
3:55 PM 79.3 °F - 70.3 °F 74% 30.06 in 10.0 mi South 4.6 mph - N/A   Scattered Clouds
4:15 PM 78.4 °F - 69.1 °F 73% 30.06 in 10.0 mi SSW 5.8 mph - N/A Rain Light Rain
4:35 PM 79.0 °F - 68.9 °F 71% 30.06 in 10.0 mi SSW 5.8 mph - N/A   Scattered Clouds
4:55 PM 79.2 °F - 68.7 °F 70% 30.06 in 10.0 mi SSW 4.6 mph - N/A   Clear
5:15 PM 79.9 °F - 69.1 °F 69% 30.06 in 10.0 mi South 5.8 mph - N/A   Clear
5:35 PM 80.1 °F 83.0 °F 69.4 °F 70% 30.06 in 10.0 mi South 4.6 mph - N/A   Clear
5:55 PM 77.9 °F - 68.2 °F 72% 30.05 in 10.0 mi SSW 3.5 mph - N/A   Clear
6:15 PM 77.0 °F - 68.5 °F 75% 30.04 in 10.0 mi Calm Calm - N/A   Clear
6:35 PM 77.0 °F - 69.1 °F 76% 30.05 in 10.0 mi Calm Calm - N/A   Clear
6:55 PM 77.0 °F - 69.4 °F 77% 30.05 in 10.0 mi Calm Calm - N/A   Clear
7:15 PM 77.0 °F - 69.8 °F 78% 30.05 in 10.0 mi Calm Calm - N/A   Clear
7:35 PM 77.0 °F - 69.6 °F 78% 30.05 in 10.0 mi Calm Calm - N/A   Scattered Clouds
7:55 PM 75.2 °F - 70.3 °F 85% 30.05 in 10.0 mi Calm Calm - N/A   Clear
8:15 PM 74.5 °F - 70.2 °F 86% 30.05 in 10.0 mi Calm Calm - N/A   Clear
8:35 PM 73.8 °F - 69.8 °F 87% 30.04 in 10.0 mi Calm Calm - N/A   Mostly Cloudy
8:55 PM 74.3 °F - 69.8 °F 86% 30.05 in 10.0 mi Calm Calm - N/A   Scattered Clouds
9:15 PM 72.9 °F - 70.3 °F 92% 30.05 in 10.0 mi Calm Calm - N/A   Mostly Cloudy
9:35 PM 72.9 °F - 70.3 °F 92% 30.05 in 10.0 mi Calm Calm - N/A   Mostly Cloudy
9:55 PM 72.3 °F - 70.2 °F 93% 30.06 in 10.0 mi Calm Calm - N/A   Overcast
10:15 PM 72.7 °F - 70.9 °F 94% 30.06 in 10.0 mi Calm Calm - N/A   Overcast
10:35 PM 71.6 °F - 70.2 °F 95% 30.07 in 10.0 mi Calm Calm - N/A   Overcast
10:55 PM 72.0 °F - 70.0 °F 93% 30.07 in 10.0 mi Calm Calm - N/A   Mostly Cloudy
11:15 PM 72.0 °F - 70.7 °F 96% 30.07 in 10.0 mi Calm Calm - N/A   Mostly Cloudy
11:35 PM 71.2 °F - 69.8 °F 95% 30.07 in 10.0 mi Calm Calm - N/A   Mostly Cloudy
11:55 PM 71.8 °F - 69.8 °F 93% 30.07 in 10.0 mi Calm Calm - N/A   Overcast